Find Starlink 5806

NORAD ID: 56007 Int'l Des: 2023-042 Owner: SPXS Country: US Constellation: starlink operational
LEOCIRCULAR

現在のビュー

3D地球を読み込み中...

About Starlink 5806

Starlink 5806 (NORAD 56007) is a starlink constellation satellite (v1.5) launched Mar 24, 2023 by SPXS of US. It operates in LEO, CIRCULAR orbit with a mass of 305.00 kg.

次回通過

Passes for default location (London). Set your location on the main map for personalized predictions.

高度履歴

Loading altitude history...

軌道要素

1 56007U 23042X 26254.93678951 .00000683 00000-0 34373-4 0 9997
2 56007 43.0040 87.7661 0001903 269.0785 90.9849 15.27574334191355
Epoch: Sep 11, 2026 • Age: 26 hours

現在のステータス

高度 483.3 km
遠地点 / 近地点 N/A
速度 7.63 km/s
衛星直下点 20.88°N, 117.89°W
打ち上げ日 Mar 24, 2023
運用期間 3.4 years
タイプ internet

技術仕様

分類 Payload
質量 305.00 kg
乾燥質量 290.00 kg
総質量 305.00 kg
長さ 0.20 m
直径 2.80 m
スパン 9.00 m
形状 Box + pan
製造者 SPXS
バスタイプ Starlink
フェーズステータス In Orbit
所有者/国 SPXS/US

Most Searched